Ana Sayfa
METAR-TAF:

METAR-TAF

Havaalanları :

Hearne Municipal Airport

Hearne, Teksas, Amerika Birleşik Devletleri

Enlem: 30-52-18N, Boylam: 096-37-20W, yükseklik: 87 m

Güncel hava durumu gözlemi

Rapor saat 11:15 UTC de 19 dakika önce yapıldı.
Rüzgar kuzeybatıdan 15 kt ve 19 kt'a kadar ani rüzgarlar
Sıcaklık 8°C
Nem 71%
Basınç 1016 hPa
Görüş mesafesi: 16.1 km
2400 ft yükseklikte çok bulutlu

METAR: KLHB 291115Z AUTO 32015G19KT 10SM OVC024 08/03 A3000 RMK AO2 T00760031

Saat: 05:34 (11:34 UTC)


TAF: eksik

4.000'den fazla havaalanı için hava durumu gözlemleri ve tahminleri (METAR ve TAF raporları).

Kullanılabilir istasyonlar harita üzerinde sarı ve kırmızı noktalarla gösterilir.

İstasyonun adını görmek için fareyi noktanın üzerinde gezdirin.

Sonrasında hava gözlem ve tahminlerini görmek için tıklayın.

Haritayı değiştirmek için: yaklaştırmak için siyah artı işaretli yeşil düğmeye ve uzaklaştırmak için de eksi işaretli düğmeye hızla tıklayın; bitişik haritalar için yeşil okları kullanın.


METAR-TAF: